Location: ????????
(37.6846°N, 24.0673°E)
Time: 12:02:21
(UTC+00:00)

USA 238 DEB - Pass Details

Date: 14 July 2020
Orbit: 1010 x 1203 km, 63.4° (Epoch: 08 August)

Event Time Altitude Azimuth Distance (km) Brightness Sun altitude
Exits shadow 01:10:59 21° 176° (S) 2,098 4.8 -19.6°
Maximum altitude 01:15:02 46° 115° (ESE) 1,362 4.3 -19.1°
Drops below altitude 10° 01:21:25 10° 44° (NE) 2,881 7.2 -18.3°
Sets 01:24:12 0° 39° (NE) 3,866 8.4 -17.9°
